SL-16 DEB, 23709

Orbit data source: Space-Track

SL-16 DEB, 23709 is space debris in LEO originally from a launch on Tue, 31 Oct 1995 UTC launched from the Tyuratam Missile And Space Complex (TTMTR). Debris objects in space refer to the collection of defunct objects orbiting the Earth. Examples of debris include non-operational satellites, rocket bodies, and fragments generated from explosions, collisions, or faulty payload assembly.

Loading next visibility...
SL-16 DEB details
Identifier
23709, 1995-058F
Orbit
LEO
Last TLE update7 hours ago
Origin
Flag of CISVKS (CIS)
ManufacturerYuzhnoe
MissionSpacecraft
Bus & MotorSEP MOTOR COVER, Unknown motor
Mass~0 kg wet, ~1 kg dry
Launch date (UTC)
1995-10-31 (29 years ago)
Launch vehicleUnknown
Launch site
Tyuratam Missile And Space Complex (TTMTR)
Object type
Payload
Rocket body
Debris
Shape & HBRUnknown
Radar Cross SectionSmall (<0.1 m²)

Expand to show TLE details & history

TLE from 7 hours ago
0 SL-16 DEB
1 23709U 95058F   24361.56325580  .00000168  00000-0  19228-3 0  9998
2 23709  71.0383  77.5508 0196225  38.8386  70.0121 13.74594074461846
Epoch: 2024-12-26T13:31Z
Definitive object data (Epoch: 2024-12-26T13:31:05.301Z)
Latitude62.11585°
Longitude-80.9992°
Altitude946.376 km
Speed7.408 km/s
True Right ascension14h 29m 15s
True Declination61° 58' 38"
Sunlit
Object was in daylight at TLE epoch
Visualization TLE readout
Latitude-18.31386°
Longitude-34.87158°
Altitude1,125.745 km
Speed7.221 km/s
Apparent Right ascension14h 41m 01s
Apparent Declination-53° 35' 52"
Sunlit
Object is in daylight
Visualization observer readout
Local Sidereal Time20:19:13
Azimuth222.114° SW
Elevation-28.245°
Doppler factor1
Orbital elements
Apogee altitude1,125.49 km
Perigee altitude836.677 km
Semi-major axis7,359.221 km
Eccentricity0.0196225
Inclination71.0383°
RAAN77.5508°
Arg. of periapsis38.8386°
True anomaly72.1426°
Mean anomaly70.0121°
Eccentric anomaly71.07562°
Mean motion3.43792 °/min
BSTAR0.00019228
Orbital period104.71 mins
Loading maneuver chart data...
Loading historical data...
Loading historical data...
Loading historical data...
Loading historical data...
Loading historical data...
Loading historical data...
Loading historical data...

SL-16 DEB Visibility forecast

Observer location: undefined°, undefined

Span
Click to sort rows by Start time (UTC) header in descending order
Start Az.
Max El. time (UTC)
Max El. Az.
Max El.
End time (UTC)
End Az.
10 mins2024-12-27 06:34:19.297Z196.427° SSW2024-12-27 06:39:19.297Z140.154° SSE44.336°2024-12-27 06:44:19.297Z26.038° NE
5 mins2024-12-27 08:25:19.297Z286.723° WNW2024-12-27 08:27:19.297Z310.583° NW15.041°2024-12-27 08:30:19.297Z344.351° N
10 mins2024-12-27 15:45:19.297Z354.949° N2024-12-27 15:49:19.297Z53.436° ENE36.46°2024-12-27 15:55:19.297Z133.535° SE
9 mins2024-12-27 17:32:19.297Z307.227° NW2024-12-27 17:36:19.297Z260.494° W25.198°2024-12-27 17:41:19.297Z205.537° SW
|